User: anonymous   Login
Location: ??? ???
(33.4974°N, 35.4618°E)
Time: 11:42:59
(UTC+00:00)
Language:

MOS 1 Rocket - Orbit

View from above orbital plane
View from above orbital plane
View from above satellite
View from above satellite

Ground track
Ground track

The orbit data is extracted from the following two-line orbital elements,

1 17528U 87018B   21019.10222083  .00000002  00000-0  94595-5 0  9997
2 17528  97.3995 208.8036 0152670 146.0370 215.0716 14.51024811790102
Epoch (UTC): 19 January 2021 02:27:11
Eccentricity: 0.0152670
inclination: 97.3995°
perigee height: 614 km
apogee height: 831 km
right ascension of ascending node: 208.8036°
argument of perigee: 146.0370°
revolutions per day: 14.51024811
mean anomaly at epoch: 215.0716°
orbit number at epoch: 79010

The dashed part of the orbit path shows where the satellite is in the earth's shadow,  

DLR